This is the latest recevied weather packets stored in our database for station/object KD9JJA. If no packets are shown the sender has not sent any weather packets the latest 10 day(s).
| Time | Temp. | Humidity | Pressure | Rain* | Wind** | Luminosity | Snow |
|---|---|---|---|---|---|---|---|
| 1777946366 | 21.67° C | 56% | 1006.5 hPa | 0 mm | - | 0 W/m² | - |
| 1777946063 | 21.67° C | 56% | 1006.4 hPa | 0 mm | - | 0 W/m² | - |
| 1777945760 | 21.67° C | 55% | 1006.2 hPa | 0 mm | - | 0 W/m² | - |
| 1777945456 | 21.67° C | 58% | 1006.3 hPa | 0 mm | - | 0 W/m² | - |
| 1777945154 | 21.67° C | 56% | 1005.9 hPa | 0 mm | - | 0 W/m² | - |
| 1777944851 | 21.67° C | 56% | 1006 hPa | 0 mm | - | 0 W/m² | - |
| 1777944549 | 21.67° C | 56% | 1005.9 hPa | 0 mm | - | 0 W/m² | - |
| 1777944246 | 21.67° C | 55% | 1005.9 hPa | 0 mm | - | 0 W/m² | - |
| 1777943942 | 22.22° C | 54% | 1005.7 hPa | 0 mm | - | 0 W/m² | - |
| 1777943639 | 22.22° C | 54% | 1005.7 hPa | 0 mm | - | 0 W/m² | - |
| 1777943335 | 22.22° C | 53% | 1005.6 hPa | 0 mm | - | 0 W/m² | - |
| 1777943031 | 22.22° C | 54% | 1005.4 hPa | 0 mm | - | 0 W/m² | - |
| 1777942728 | 22.22° C | 52% | 1005.5 hPa | 0 mm | - | 0 W/m² | - |
| 1777942424 | 22.22° C | 53% | 1005.3 hPa | 0 mm | - | 0 W/m² | - |
| 1777942122 | 22.78° C | 52% | 1005.3 hPa | 0 mm | - | 0 W/m² | - |
| 1777941818 | 22.78° C | 54% | 1005.3 hPa | 0 mm | - | 0 W/m² | - |
| 1777941516 | 22.78° C | 54% | 1005.1 hPa | 0 mm | - | 0 W/m² | - |
| 1777941213 | 22.78° C | 54% | 1005.4 hPa | 0 mm | - | 0 W/m² | - |
| 1777940909 | 22.78° C | 52% | 1005.4 hPa | 0 mm | - | 1 W/m² | - |
| 1777940606 | 23.33° C | 51% | 1005.7 hPa | 0 mm | - | 3 W/m² | - |
| 1777940304 | 23.33° C | 51% | 1005.4 hPa | 0 mm | - | 3 W/m² | - |
| 1777940001 | 23.33° C | 51% | 1005.4 hPa | 0 mm | - | 6 W/m² | - |
| 1777939698 | 23.33° C | 54% | 1005.5 hPa | 0 mm | - | 7 W/m² | - |
| 1777939396 | 23.33° C | 51% | 1005.4 hPa | 0 mm | - | 10 W/m² | - |
| 1777939092 | 23.33° C | 51% | 1005.5 hPa | 0 mm | - | 11 W/m² | - |
* Rain latest hour (hover to see other rain measurements)
** Current wind speed in m/s (hover to see current wind gust speed)